Plymouth, NH

7:28 PM EST on February 23, 2017 (GMT -0500)
Plymouth

Weather History for K1P1 - December, 2012

Change the Weather History Date:

Tuesday, December 4, 2012

  Actual Average (KLCI) Record (KLCI)
Temperature  
Mean Temperature 31 °F -  
Max Temperature 36 °F 38 °F 64 °F (1998)
Min Temperature 26 °F 22 °F -2 °F (1976)
Degree Days  
Heating Degree Days 34    
Moisture  
Dew Point 33 °F    
Average Humidity 100    
Maximum Humidity 100    
Minimum Humidity 99    
Precipitation  
Precipitation 0.00 in - - ()
Sea Level Pressure  
Sea Level Pressure 30.19 in    
Wind  
Wind Speed 0 mph (ENE)    
Max Wind Speed 4 mph    
Max Gust Speed -    
Visibility 3 miles    
Events Fog , Rain    
Averages and records for this station are not official NWS values.
T = Trace of Precipitation, MM = Missing Value Source: NWS Daily Summary

Daily Weather History Graph

Daily Weather History Graph

Search for Another Location

Airport or City:

Trip Planner

Search our weather history database for the weather conditions in past years. The results will help you decide how hot, cold, wet, or windy it might be!

Date:

Astronomy

Dec. 04, 2012 Rise Set
Actual Time 7:04 AM EST 4:10 PM EST
Civil Twilight 6:32 AM EST 4:42 PM EST
Nautical Twilight 5:56 AM EST 5:18 PM EST
Astronomical Twilight 5:21 AM EST 5:53 PM EST
Moon 10:02 PM EST (12/4) 10:50 AM EST (12/4)
Length of Visible Light 10h 10m
Length of Day
9h 05m
Waning Gibbous, 69% of the Moon is Illuminated
Dec 4
Waning Gibbous
Dec 6
Last Quarter
Dec 13
New
Dec 20
First Quarter
Dec 28
Full

Hourly Weather History & Observations

Time (EST) Temp. Windchill Dew Point Humidity Pressure Visibility Wind Dir Wind Speed Gust Speed Precip Events Conditions
12:15 AM 27.5 °F - 27.3 °F 99% 30.30 in 7.0 mi Calm Calm - N/A   Mostly Cloudy
12:35 AM 26.6 °F - 26.4 °F 99% 30.30 in 7.0 mi Calm Calm - N/A   Scattered Clouds
12:55 AM 27.5 °F - 27.1 °F 99% 30.30 in 1.0 mi Calm Calm - N/A   Overcast
1:15 AM 27.3 °F - 27.1 °F 99% 30.30 in 0.2 mi Calm Calm - N/A Fog Light Freezing Fog
1:35 AM 26.6 °F - 26.4 °F 99% 30.30 in 0.2 mi Calm Calm - N/A Fog Light Freezing Fog
1:55 AM 26.6 °F - 26.4 °F 99% 30.30 in 0.8 mi Calm Calm - N/A   Overcast
2:15 AM 26.6 °F - 26.4 °F 99% 30.30 in 0.5 mi Calm Calm - N/A Fog Light Freezing Fog
2:35 AM 27.5 °F - 27.1 °F 99% 30.30 in 0.5 mi Calm Calm - N/A Fog Light Freezing Fog
2:55 AM 28.2 °F - 28.0 °F 99% 30.30 in 2.5 mi Calm Calm - N/A   Overcast
3:15 AM 28.4 °F - 28.2 °F 99% 30.30 in 5.0 mi Calm Calm - N/A   Overcast
3:35 AM 28.6 °F - 28.4 °F 99% 30.30 in 7.0 mi Calm Calm - N/A   Overcast
3:55 AM 28.9 °F - 28.8 °F 99% 30.31 in 7.0 mi Calm Calm - N/A   Overcast
4:15 AM 29.1 °F - 28.9 °F 99% 30.29 in 10.0 mi Calm Calm - N/A   Overcast
4:35 AM 29.3 °F 25.6 °F 29.3 °F 100% 30.29 in 10.0 mi East 3.5 mph - N/A   Overcast
4:55 AM 29.5 °F - 29.5 °F 100% 30.29 in 10.0 mi Calm Calm - N/A   Overcast
5:15 AM 30.0 °F - 30.0 °F 100% 30.29 in 10.0 mi Calm Calm - N/A   Overcast
5:35 AM 30.0 °F - 30.0 °F 100% 30.30 in 10.0 mi Calm Calm - N/A   Overcast
5:55 AM 30.2 °F - 30.2 °F 100% 30.30 in 10.0 mi Calm Calm - N/A   Overcast
6:15 AM 30.6 °F - 30.6 °F 100% 30.29 in 10.0 mi Calm Calm - N/A   Overcast
6:35 AM 30.7 °F - 30.7 °F 100% 30.29 in 10.0 mi Calm Calm - N/A   Overcast
6:55 AM 31.1 °F - 31.1 °F 100% 30.29 in 10.0 mi Calm Calm - N/A   Overcast
7:15 AM 31.3 °F - 31.3 °F 100% 30.31 in 10.0 mi Calm Calm - N/A   Overcast
7:35 AM 31.6 °F - 31.6 °F 100% 30.30 in 10.0 mi Calm Calm - N/A   Overcast
7:55 AM 31.8 °F - 31.8 °F 100% 30.30 in 7.0 mi Calm Calm - N/A   Overcast
8:15 AM 32.0 °F - 32.0 °F 100% 30.30 in 7.0 mi Calm Calm - N/A   Overcast
8:35 AM 32.0 °F - 32.0 °F 100% 30.29 in 5.0 mi Calm Calm - N/A   Overcast
8:55 AM 32.0 °F - 32.0 °F 100% 30.29 in 2.5 mi Calm Calm - N/A   Overcast
9:15 AM 32.0 °F - 32.0 °F 100% 30.29 in 2.5 mi Calm Calm - N/A   Overcast
9:35 AM 32.2 °F - 32.2 °F 100% 30.29 in 2.5 mi Calm Calm - N/A   Overcast
10:15 AM 32.9 °F - 32.9 °F 100% 30.29 in 2.5 mi Calm Calm - N/A   Overcast
10:35 AM 32.9 °F - 32.9 °F 100% 30.27 in 2.0 mi Calm Calm - N/A   Overcast
10:55 AM 32.9 °F - 32.9 °F 100% 30.26 in 2.0 mi Calm Calm - N/A Rain Light Rain
11:15 AM 33.1 °F - 33.1 °F 100% 30.25 in 2.0 mi Calm Calm - N/A Rain Rain
11:35 AM 33.4 °F - 33.4 °F 100% 30.24 in 2.5 mi Calm Calm - N/A   Overcast
11:55 AM 33.8 °F - 33.8 °F 100% 30.23 in 3.0 mi Calm Calm - N/A   Overcast
12:15 PM 34.0 °F - 34.0 °F 100% 30.22 in 4.0 mi Calm Calm - N/A   Overcast
12:35 PM 34.7 °F - 34.7 °F 100% 30.21 in 4.0 mi Calm Calm - N/A   Overcast
12:55 PM 34.7 °F - 34.7 °F 100% 30.20 in 2.0 mi Calm Calm - N/A   Overcast
1:15 PM 34.9 °F - 34.9 °F 100% 30.19 in 1.5 mi Calm Calm - N/A   Overcast
1:35 PM 35.2 °F - 35.2 °F 100% 30.19 in 1.0 mi Calm Calm - N/A   Overcast
1:55 PM 35.4 °F 32.6 °F 35.4 °F 100% 30.18 in 1.2 mi NE 3.5 mph - N/A   Overcast
2:15 PM 35.6 °F - 35.6 °F 100% 30.17 in 0.8 mi Calm Calm - N/A   Overcast
2:35 PM 35.6 °F - 35.6 °F 100% 30.16 in 0.8 mi Calm Calm - N/A   Overcast
2:55 PM 35.8 °F 33.0 °F 35.8 °F 100% 30.15 in 0.8 mi ENE 3.5 mph - N/A   Overcast
3:15 PM 36.0 °F - 36.0 °F 100% 30.15 in 0.8 mi Calm Calm - N/A   Overcast
3:35 PM 35.8 °F 33.0 °F 35.8 °F 100% 30.15 in 0.5 mi ENE 3.5 mph - N/A Fog Fog
3:55 PM 35.6 °F - 35.6 °F 100% 30.14 in 0.5 mi Calm Calm - N/A Fog Fog
4:15 PM 35.6 °F - 35.6 °F 100% 30.14 in 0.5 mi Calm Calm - N/A Fog Fog
4:35 PM 35.6 °F - 35.6 °F 100% 30.13 in 1.0 mi Calm Calm - N/A   Overcast
4:55 PM 35.2 °F - 35.2 °F 100% 30.12 in 1.0 mi Calm Calm - N/A   Overcast
5:15 PM 35.1 °F 32.2 °F 35.1 °F 100% 30.12 in 0.8 mi East 3.5 mph - N/A   Overcast
5:35 PM 35.2 °F 32.4 °F 35.2 °F 100% 30.11 in 1.2 mi East 3.5 mph - N/A   Overcast
5:55 PM 35.1 °F - 35.1 °F 100% 30.10 in 1.2 mi Calm Calm - N/A   Overcast
6:35 PM 35.1 °F - 35.1 °F 100% 30.09 in 1.0 mi Calm Calm - N/A   Overcast
6:55 PM 35.1 °F - 35.1 °F 100% 30.08 in 1.0 mi Calm Calm - N/A   Overcast
7:15 PM 35.2 °F - 35.2 °F 100% 30.07 in 1.2 mi Calm Calm - N/A   Overcast
7:35 PM 35.4 °F 32.6 °F 35.4 °F 100% 30.06 in 1.0 mi ENE 3.5 mph - N/A   Overcast
7:55 PM 35.2 °F 32.4 °F 35.2 °F 100% 30.05 in 1.0 mi East 3.5 mph - N/A   Overcast
8:15 PM 35.2 °F - 35.2 °F 100% 30.04 in 0.8 mi Calm Calm - N/A   Overcast
8:35 PM 35.6 °F - 35.6 °F 100% 30.03 in 0.8 mi Calm Calm - N/A   Overcast
8:55 PM 35.6 °F - 35.6 °F 100% 30.02 in 0.8 mi Calm Calm - N/A   Overcast
9:15 PM 35.4 °F - 35.4 °F 100% 30.01 in 0.8 mi Calm Calm - N/A   Overcast
9:35 PM 35.2 °F - 35.2 °F 100% 30.00 in 0.8 mi Calm Calm - N/A   Overcast
9:55 PM 35.6 °F - 35.6 °F 100% 29.99 in 1.0 mi Calm Calm - N/A   Overcast
10:15 PM 35.6 °F - 35.6 °F 100% 29.98 in 1.0 mi Calm Calm - N/A   Overcast
10:35 PM 35.6 °F 32.8 °F 35.6 °F 100% 29.97 in 1.0 mi East 3.5 mph - N/A   Overcast
10:55 PM 36.0 °F - 36.0 °F 100% 29.96 in 1.0 mi Calm Calm - N/A   Overcast
11:15 PM 35.8 °F - 35.8 °F 100% 29.95 in 1.0 mi Calm Calm - N/A   Overcast
11:35 PM 36.1 °F - 36.1 °F 100% 29.94 in 1.0 mi Calm Calm - N/A   Overcast